Time,TemperatureF,DewpointF,PressureIn,WindDirection,WindDirectionDegrees,WindSpeedMPH,WindSpeedGustMPH,Humidity,HourlyPrecipIn,Conditions,Clouds,dailyrainin,SoftwareType,DateUTC
2013-02-28 00:00:00,46.9,33.8,30.09,NNE,16,0.0,0.0,60,0.00,CLR,,0.00,WeatherDisplay:10.37,2013-02-28 08:00:00,
2013-02-28 00:05:00,46.7,33.1,30.09,NNE,22,0.0,0.0,59,0.00,CLR,,0.00,WeatherDisplay:10.37,2013-02-28 08:05:00,
2013-02-28 00:10:00,46.4,32.8,30.09,NNE,22,0.0,0.0,59,0.00,CLR,,0.00,WeatherDisplay:10.37,2013-02-28 08:10:00,
2013-02-28 00:15:00,46.2,32.7,30.09,NNE,22,0.0,0.0,59,0.00,CLR,,0.00,WeatherDisplay:10.37,2013-02-28 08:15:00,
2013-02-28 00:20:00,46.0,32.5,30.09,NNE,22,0.0,0.0,59,0.00,CLR,,0.00,WeatherDisplay:10.37,2013-02-28 08:20:00,
2013-02-28 00:25:00,45.9,32.3,30.09,NNE,22,0.0,0.0,59,0.00,CLR,,0.00,WeatherDisplay:10.37,2013-02-28 08:25:00,
2013-02-28 00:30:00,45.9,32.3,30.09,NNE,22,0.0,0.0,59,0.00,CLR,,0.00,WeatherDisplay:10.37,2013-02-28 08:30:00,
2013-02-28 00:35:00,45.9,32.3,30.09,NNE,22,0.0,0.0,59,0.00,CLR,,0.00,WeatherDisplay:10.37,2013-02-28 08:35:00,
2013-02-28 00:40:00,45.7,32.2,30.09,NNE,22,0.0,0.0,59,0.00,CLR,,0.00,WeatherDisplay:10.37,2013-02-28 08:40:00,
2013-02-28 00:45:00,45.7,32.6,30.09,NNE,22,0.0,0.0,60,0.00,CLR,,0.00,WeatherDisplay:10.37,2013-02-28 08:45:00,
2013-02-28 00:50:00,45.5,32.4,30.09,NNE,22,0.0,0.0,60,0.00,CLR,,0.00,WeatherDisplay:10.37,2013-02-28 08:50:00,
2013-02-28 00:55:00,45.5,32.4,30.09,North,359,0.0,4.0,60,0.00,CLR,,0.00,WeatherDisplay:10.37,2013-02-28 08:55:00,
2013-02-28 01:00:00,45.3,32.2,30.09,West,264,0.0,3.0,60,0.00,CLR,,0.00,WeatherDisplay:10.37,2013-02-28 09:00:00,
2013-02-28 01:05:00,45.5,32.8,30.09,WSW,248,0.0,0.0,61,0.00,CLR,,0.00,WeatherDisplay:10.37,2013-02-28 09:05:00,
2013-02-28 01:10:00,45.6,32.9,30.09,WSW,248,0.0,0.0,61,0.00,CLR,,0.00,WeatherDisplay:10.37,2013-02-28 09:10:00,
2013-02-28 01:15:00,45.3,32.7,30.12,WSW,248,0.0,0.0,61,0.00,CLR,,0.00,WeatherDisplay:10.37,2013-02-28 09:15:00,
2013-02-28 01:20:00,45.7,33.0,30.12,WSW,248,0.0,0.0,61,0.00,CLR,,0.00,WeatherDisplay:10.37,2013-02-28 09:20:00,
2013-02-28 01:25:00,45.7,33.0,30.12,WSW,248,0.0,0.0,61,0.00,CLR,,0.00,WeatherDisplay:10.37,2013-02-28 09:25:00,
2013-02-28 01:30:00,45.7,33.0,30.12,WSW,248,0.0,0.0,61,0.00,CLR,,0.00,WeatherDisplay:10.37,2013-02-28 09:30:00,
2013-02-28 01:40:00,45.5,32.8,30.12,WSW,248,0.0,0.0,61,0.00,CLR,,0.00,WeatherDisplay:10.37,2013-02-28 09:40:00,
2013-02-28 01:50:00,45.4,32.7,30.09,WSW,248,0.0,3.0,61,0.00,CLR,,0.00,WeatherDisplay:10.37,2013-02-28 09:50:00,
2013-02-28 01:54:00,45.4,32.7,30.09,WSW,250,1.0,4.0,61,0.00,CLR,,0.00,WeatherDisplay:10.37,2013-02-28 09:54:00,
2013-02-28 02:00:00,45.7,33.5,30.12,West,259,0.0,4.0,62,0.00,CLR,,0.00,WeatherDisplay:10.37,2013-02-28 10:00:00,
2013-02-28 02:05:00,45.9,34.0,30.12,WSW,255,0.0,2.0,63,0.00,CLR,,0.00,WeatherDisplay:10.37,2013-02-28 10:05:00,
2013-02-28 02:10:00,46.1,33.8,30.12,WSW,248,0.0,0.0,62,0.00,CLR,,0.00,WeatherDisplay:10.37,2013-02-28 10:10:00,
2013-02-28 02:15:00,46.3,34.4,30.12,WSW,253,0.0,3.0,63,0.00,CLR,,0.00,WeatherDisplay:10.37,2013-02-28 10:15:00,
2013-02-28 02:20:00,46.6,34.7,30.12,West,264,0.0,3.0,63,0.00,CLR,,0.00,WeatherDisplay:10.37,2013-02-28 10:20:00,
2013-02-28 02:25:00,46.5,34.6,30.12,West,270,1.0,3.0,63,0.00,CLR,,0.00,WeatherDisplay:10.37,2013-02-28 10:25:00,
2013-02-28 02:30:00,46.4,34.5,30.12,West,270,0.0,3.0,63,0.00,CLR,,0.00,WeatherDisplay:10.37,2013-02-28 10:30:00,
2013-02-28 02:35:00,46.6,34.6,30.12,WSW,249,3.0,5.0,63,0.00,CLR,,0.00,WeatherDisplay:10.37,2013-02-28 10:35:00,
2013-02-28 02:40:00,46.6,34.7,30.12,SW,232,0.0,4.0,63,0.00,CLR,,0.00,WeatherDisplay:10.37,2013-02-28 10:40:00,
2013-02-28 02:44:00,46.8,34.8,30.09,SW,230,2.0,6.0,63,0.00,CLR,,0.00,WeatherDisplay:10.37,2013-02-28 10:44:00,
2013-02-28 02:50:00,46.8,35.2,30.09,WSW,244,2.0,5.0,64,0.00,CLR,,0.00,WeatherDisplay:10.37,2013-02-28 10:50:00,
2013-02-28 02:54:00,46.9,35.4,30.09,West,267,1.0,6.0,64,0.00,CLR,,0.00,WeatherDisplay:10.37,2013-02-28 10:54:00,
2013-02-28 02:59:00,46.9,35.8,30.12,West,276,1.0,6.0,65,0.00,CLR,,0.00,WeatherDisplay:10.37,2013-02-28 10:59:00,
2013-02-28 03:05:00,47.0,35.9,30.12,West,279,3.0,6.0,65,0.00,CLR,,0.00,WeatherDisplay:10.37,2013-02-28 11:05:00,
2013-02-28 03:10:00,47.0,37.0,30.12,WNW,282,1.0,7.0,68,0.00,CLR,,0.00,WeatherDisplay:10.37,2013-02-28 11:10:00,
2013-02-28 03:14:00,46.9,36.9,30.09,WNW,283,1.0,5.0,68,0.00,CLR,,0.00,WeatherDisplay:10.37,2013-02-28 11:14:00,
2013-02-28 03:20:00,46.8,36.8,30.09,WNW,289,2.0,6.0,68,0.00,CLR,,0.00,WeatherDisplay:10.37,2013-02-28 11:20:00,
2013-02-28 03:24:00,47.1,37.4,30.09,NNW,331,1.0,5.0,69,0.00,CLR,,0.00,WeatherDisplay:10.37,2013-02-28 11:24:00,
2013-02-28 03:30:00,47.1,37.5,30.09,SE,128,5.0,6.0,69,0.00,CLR,,0.00,WeatherDisplay:10.37,2013-02-28 11:30:00,
2013-02-28 03:40:00,46.9,37.3,30.09,NW,316,1.0,5.0,69,0.00,CLR,,0.00,WeatherDisplay:10.37,2013-02-28 11:40:00,
2013-02-28 03:45:00,46.9,37.3,30.09,WNW,288,1.0,5.0,69,0.00,CLR,,0.00,WeatherDisplay:10.37,2013-02-28 11:45:00,
2013-02-28 03:50:00,46.8,37.1,30.09,West,276,2.0,5.0,69,0.00,CLR,,0.00,WeatherDisplay:10.37,2013-02-28 11:50:00,
2013-02-28 03:55:00,46.6,37.0,30.09,WSW,256,1.0,3.0,69,0.00,CLR,,0.00,WeatherDisplay:10.37,2013-02-28 11:55:00,
2013-02-28 04:00:00,46.2,36.2,30.12,WSW,242,1.0,5.0,68,0.00,CLR,,0.00,WeatherDisplay:10.37,2013-02-28 12:00:00,
2013-02-28 04:10:00,45.9,35.9,30.12,West,271,0.0,0.0,68,0.00,CLR,,0.00,WeatherDisplay:10.37,2013-02-28 12:10:00,
2013-02-28 04:20:00,45.9,35.9,30.09,WNW,301,0.0,0.0,68,0.00,CLR,,0.00,WeatherDisplay:10.37,2013-02-28 12:20:00,
2013-02-28 04:25:00,45.7,35.8,30.09,NW,315,0.0,0.0,68,0.00,CLR,,0.00,WeatherDisplay:10.37,2013-02-28 12:25:00,
2013-02-28 04:30:00,45.7,35.7,30.09,NW,315,0.0,0.0,68,0.00,CLR,,0.00,WeatherDisplay:10.37,2013-02-28 12:30:00,
2013-02-28 04:35:00,45.5,35.5,30.09,NW,305,0.0,3.0,68,0.00,CLR,,0.00,WeatherDisplay:10.37,2013-02-28 12:35:00,
2013-02-28 04:40:00,45.3,35.4,30.09,WNW,294,0.0,0.0,68,0.00,CLR,,0.00,WeatherDisplay:10.37,2013-02-28 12:40:00,
2013-02-28 04:45:00,45.3,35.4,30.12,WNW,292,0.0,0.0,68,0.00,CLR,,0.00,WeatherDisplay:10.37,2013-02-28 12:45:00,
2013-02-28 04:50:00,45.3,35.3,30.12,WNW,292,0.0,0.0,68,0.00,CLR,,0.00,WeatherDisplay:10.37,2013-02-28 12:50:00,
2013-02-28 04:59:00,45.4,35.8,30.12,West,273,0.0,3.0,69,0.00,CLR,,0.00,WeatherDisplay:10.37,2013-02-28 12:59:00,
2013-02-28 05:05:00,45.5,36.3,30.12,NW,314,0.0,4.0,70,0.00,CLR,,0.00,WeatherDisplay:10.37,2013-02-28 13:05:00,
2013-02-28 05:10:00,45.5,35.9,30.12,North,353,0.0,0.0,69,0.00,CLR,,0.00,WeatherDisplay:10.37,2013-02-28 13:10:00,
2013-02-28 05:15:00,45.3,36.1,30.12,North,0,0.0,0.0,70,0.00,CLR,,0.00,WeatherDisplay:10.37,2013-02-28 13:15:00,
2013-02-28 05:20:00,45.5,36.3,30.12,North,0,0.0,2.0,70,0.00,CLR,,0.00,WeatherDisplay:10.37,2013-02-28 13:20:00,
2013-02-28 05:30:00,45.3,36.1,30.12,West,270,0.0,0.0,70,0.00,CLR,,0.00,WeatherDisplay:10.37,2013-02-28 13:30:00,
2013-02-28 05:35:00,45.5,36.3,30.12,West,270,0.0,3.0,70,0.00,CLR,,0.00,WeatherDisplay:10.37,2013-02-28 13:35:00,
2013-02-28 05:40:00,45.5,36.3,30.12,West,270,0.0,3.0,70,0.00,CLR,,0.00,WeatherDisplay:10.37,2013-02-28 13:40:00,
2013-02-28 05:45:00,45.5,36.3,30.12,West,270,0.0,3.0,70,0.00,CLR,,0.00,WeatherDisplay:10.37,2013-02-28 13:45:00,
2013-02-28 05:50:00,45.9,36.6,30.12,West,270,1.0,5.0,70,0.00,CLR,,0.00,WeatherDisplay:10.37,2013-02-28 13:50:00,
2013-02-28 05:55:00,45.9,36.6,30.12,West,261,1.0,5.0,70,0.00,CLR,,0.00,WeatherDisplay:10.37,2013-02-28 13:55:00,
2013-02-28 05:59:00,45.9,36.7,30.12,WSW,249,0.0,3.0,70,0.00,CLR,,0.00,WeatherDisplay:10.37,2013-02-28 13:59:00,
2013-02-28 06:05:00,46.5,37.2,30.12,WSW,249,2.0,5.0,70,0.00,CLR,,0.00,WeatherDisplay:10.37,2013-02-28 14:05:00,
2013-02-28 06:15:00,46.9,38.0,30.12,WNW,301,0.0,5.0,71,0.00,CLR,,0.00,WeatherDisplay:10.37,2013-02-28 14:15:00,
2013-02-28 06:20:00,46.9,38.0,30.12,WNW,284,2.0,5.0,71,0.00,CLR,,0.00,WeatherDisplay:10.37,2013-02-28 14:20:00,
2013-02-28 06:25:00,46.9,37.7,30.12,WSW,253,0.0,0.0,70,0.00,CLR,,0.00,WeatherDisplay:10.37,2013-02-28 14:25:00,
2013-02-28 06:30:00,46.9,37.7,30.15,West,267,0.0,3.0,70,0.00,CLR,,0.00,WeatherDisplay:10.37,2013-02-28 14:30:00,
2013-02-28 06:39:00,47.1,37.5,30.15,NNW,338,0.0,0.0,69,0.00,CLR,,0.00,WeatherDisplay:10.37,2013-02-28 14:39:00,
2013-02-28 06:45:00,47.1,37.5,30.15,NNW,338,0.0,0.0,69,0.00,CLR,,0.00,WeatherDisplay:10.37,2013-02-28 14:45:00,
2013-02-28 06:50:00,47.3,37.6,30.15,NNW,338,0.0,0.0,69,0.00,CLR,,0.00,WeatherDisplay:10.37,2013-02-28 14:50:00,
2013-02-28 06:59:00,47.5,37.8,30.15,NNW,338,0.0,0.0,69,0.00,CLR,,0.00,WeatherDisplay:10.37,2013-02-28 14:59:00,
2013-02-28 07:04:00,47.9,38.3,30.15,NNW,338,0.0,0.0,69,0.00,CLR,,0.00,WeatherDisplay:10.37,2013-02-28 15:04:00,
2013-02-28 07:10:00,48.4,38.7,30.15,NNW,338,0.0,0.0,69,0.00,CLR,,0.00,WeatherDisplay:10.37,2013-02-28 15:10:00,
2013-02-28 07:15:00,48.9,39.1,30.15,NNW,338,0.0,0.0,69,0.00,CLR,,0.00,WeatherDisplay:10.37,2013-02-28 15:15:00,
2013-02-28 07:20:00,49.3,39.2,30.15,NNW,338,0.0,0.0,68,0.00,CLR,,0.00,WeatherDisplay:10.37,2013-02-28 15:20:00,
2013-02-28 07:29:00,49.6,39.5,30.15,NNW,338,0.0,0.0,68,0.00,CLR,,0.00,WeatherDisplay:10.37,2013-02-28 15:29:00,
2013-02-28 07:35:00,49.8,38.9,30.15,NNW,338,0.0,0.0,66,0.00,CLR,,0.00,WeatherDisplay:10.37,2013-02-28 15:35:00,
2013-02-28 07:45:00,50.0,38.7,30.15,NNW,338,0.0,0.0,65,0.00,CLR,,0.00,WeatherDisplay:10.37,2013-02-28 15:45:00,
2013-02-28 07:50:00,50.2,38.5,30.15,NNW,338,0.0,0.0,64,0.00,CLR,,0.00,WeatherDisplay:10.37,2013-02-28 15:50:00,
2013-02-28 07:59:00,51.1,38.6,30.15,North,359,0.0,3.0,62,0.00,CLR,,0.00,WeatherDisplay:10.37,2013-02-28 15:59:00,
2013-02-28 08:05:00,52.6,39.1,30.15,ENE,58,0.0,3.0,60,0.00,CLR,,0.00,WeatherDisplay:10.37,2013-02-28 16:05:00,
2013-02-28 08:10:00,52.9,38.1,30.15,East,97,0.0,3.0,57,0.00,CLR,,0.00,WeatherDisplay:10.37,2013-02-28 16:10:00,
2013-02-28 08:20:00,52.5,36.8,30.15,ESE,112,0.0,0.0,55,0.00,CLR,,0.00,WeatherDisplay:10.37,2013-02-28 16:20:00,
2013-02-28 08:25:00,52.5,37.3,30.15,ESE,112,0.0,0.0,56,0.00,CLR,,0.00,WeatherDisplay:10.37,2013-02-28 16:25:00,
2013-02-28 08:30:00,52.7,37.4,30.15,East,81,1.0,3.0,56,0.00,CLR,,0.00,WeatherDisplay:10.37,2013-02-28 16:30:00,
2013-02-28 08:40:00,54.5,37.7,30.15,NNE,22,0.0,2.0,53,0.00,CLR,,0.00,WeatherDisplay:10.37,2013-02-28 16:40:00,
2013-02-28 08:45:00,54.3,37.1,30.18,NNE,22,0.0,2.0,52,0.00,CLR,,0.00,WeatherDisplay:10.37,2013-02-28 16:45:00,
2013-02-28 08:49:00,54.7,36.9,30.18,NNE,22,0.0,3.0,51,0.00,CLR,,0.00,WeatherDisplay:10.37,2013-02-28 16:49:00,
2013-02-28 08:55:00,55.0,36.7,30.18,NE,52,2.0,5.0,50,0.00,CLR,,0.00,WeatherDisplay:10.37,2013-02-28 16:55:00,
2013-02-28 08:59:00,55.6,36.7,30.18,ESE,103,0.0,3.0,49,0.00,CLR,,0.00,WeatherDisplay:10.37,2013-02-28 16:59:00,
2013-02-28 09:04:00,55.8,36.4,30.18,ESE,119,0.0,5.0,48,0.00,CLR,,0.00,WeatherDisplay:10.37,2013-02-28 17:04:00,
2013-02-28 09:10:00,56.2,36.8,30.18,SSE,164,2.0,5.0,48,0.00,CLR,,0.00,WeatherDisplay:10.37,2013-02-28 17:10:00,
2013-02-28 09:20:00,56.5,35.4,30.18,WSW,244,3.0,6.0,45,0.00,CLR,,0.00,WeatherDisplay:10.37,2013-02-28 17:20:00,
2013-02-28 09:30:00,57.4,35.6,30.18,SW,236,2.0,6.0,44,0.00,CLR,,0.00,WeatherDisplay:10.37,2013-02-28 17:30:00,
2013-02-28 09:35:00,57.6,35.8,30.18,WSW,237,3.0,6.0,44,0.00,CLR,,0.00,WeatherDisplay:10.37,2013-02-28 17:35:00,
2013-02-28 09:40:00,57.4,35.1,30.18,WSW,248,3.0,5.0,43,0.00,CLR,,0.00,WeatherDisplay:10.37,2013-02-28 17:40:00,
2013-02-28 09:45:00,57.7,35.9,30.18,WSW,245,2.0,5.0,44,0.00,CLR,,0.00,WeatherDisplay:10.37,2013-02-28 17:45:00,
2013-02-28 09:50:00,57.7,34.8,30.18,SW,226,1.0,5.0,42,0.00,CLR,,0.00,WeatherDisplay:10.37,2013-02-28 17:50:00,
2013-02-28 09:59:00,57.7,32.8,30.18,SW,216,0.0,4.0,39,0.00,CLR,,0.00,WeatherDisplay:10.37,2013-02-28 17:59:00,
2013-02-28 10:05:00,58.4,33.5,30.18,WSW,243,0.0,6.0,39,0.00,CLR,,0.00,WeatherDisplay:10.37,2013-02-28 18:05:00,
2013-02-28 10:10:00,59.1,34.7,30.18,WSW,251,3.0,7.0,40,0.00,CLR,,0.00,WeatherDisplay:10.37,2013-02-28 18:10:00,
2013-02-28 10:14:00,58.8,33.2,30.18,WSW,256,3.0,6.0,38,0.00,CLR,,0.00,WeatherDisplay:10.37,2013-02-28 18:14:00,
2013-02-28 10:20:00,59.1,33.5,30.18,SW,233,2.0,8.0,38,0.00,CLR,,0.00,WeatherDisplay:10.37,2013-02-28 18:20:00,
2013-02-28 10:25:00,59.0,33.4,30.18,WSW,243,3.0,6.0,38,0.00,CLR,,0.00,WeatherDisplay:10.37,2013-02-28 18:25:00,
2013-02-28 10:30:00,59.5,33.9,30.18,WSW,243,2.0,5.0,38,0.00,CLR,,0.00,WeatherDisplay:10.37,2013-02-28 18:30:00,
2013-02-28 10:34:00,59.7,33.4,30.18,WSW,250,3.0,6.0,37,0.00,CLR,,0.00,WeatherDisplay:10.37,2013-02-28 18:34:00,
2013-02-28 10:40:00,60.1,33.7,30.18,SSW,204,2.0,5.0,37,0.00,CLR,,0.00,WeatherDisplay:10.37,2013-02-28 18:40:00,
2013-02-28 10:50:00,60.6,33.5,30.18,ESE,113,3.0,6.0,36,0.00,CLR,,0.00,WeatherDisplay:10.37,2013-02-28 18:50:00,
2013-02-28 10:55:00,60.9,33.7,30.18,SE,137,3.0,6.0,36,0.00,CLR,,0.00,WeatherDisplay:10.37,2013-02-28 18:55:00,
2013-02-28 10:59:00,60.9,33.7,30.18,SE,144,3.0,6.0,36,0.00,CLR,,0.00,WeatherDisplay:10.37,2013-02-28 18:59:00,
2013-02-28 11:05:00,61.5,34.2,30.18,SE,141,3.0,6.0,36,0.00,CLR,,0.00,WeatherDisplay:10.37,2013-02-28 19:05:00,
2013-02-28 11:10:00,62.0,34.0,30.18,SSE,158,5.0,8.0,35,0.00,CLR,,0.00,WeatherDisplay:10.37,2013-02-28 19:10:00,
2013-02-28 11:15:00,62.3,33.6,30.18,SE,144,3.0,7.0,34,0.00,CLR,,0.00,WeatherDisplay:10.37,2013-02-28 19:15:00,
2013-02-28 11:20:00,63.1,34.3,30.18,SSE,154,5.0,5.0,34,0.00,CLR,,0.00,WeatherDisplay:10.37,2013-02-28 19:20:00,
2013-02-28 11:30:00,63.5,33.9,30.18,South,169,3.0,6.0,33,0.00,CLR,,0.00,WeatherDisplay:10.37,2013-02-28 19:30:00,
2013-02-28 11:40:00,60.4,31.9,30.18,WSW,256,6.0,8.0,34,0.00,CLR,,0.00,WeatherDisplay:10.37,2013-02-28 19:40:00,
2013-02-28 11:50:00,59.2,31.6,30.18,WSW,247,5.0,9.0,35,0.00,CLR,,0.00,WeatherDisplay:10.37,2013-02-28 19:50:00,
2013-02-28 11:54:00,58.8,31.2,30.18,WSW,247,6.0,10.0,35,0.00,CLR,,0.00,WeatherDisplay:10.37,2013-02-28 19:54:00,
2013-02-28 11:59:00,58.6,31.7,30.18,WSW,248,6.0,12.0,36,0.00,CLR,,0.00,WeatherDisplay:10.37,2013-02-28 19:59:00,
2013-02-28 12:04:00,58.8,31.9,30.18,WSW,251,6.0,9.0,36,0.00,CLR,,0.00,WeatherDisplay:10.37,2013-02-28 20:04:00,
2013-02-28 12:09:00,58.3,32.1,30.18,WSW,239,6.0,10.0,37,0.00,CLR,,0.00,WeatherDisplay:10.37,2013-02-28 20:09:00,
2013-02-28 12:15:00,58.3,32.1,30.18,SW,216,5.0,10.0,37,0.00,CLR,,0.00,WeatherDisplay:10.37,2013-02-28 20:15:00,
2013-02-28 12:20:00,58.5,32.3,30.18,WSW,238,7.0,10.0,37,0.00,CLR,,0.00,WeatherDisplay:10.37,2013-02-28 20:20:00,
2013-02-28 12:24:00,58.6,32.4,30.18,WSW,241,5.0,8.0,37,0.00,CLR,,0.00,WeatherDisplay:10.37,2013-02-28 20:24:00,
2013-02-28 12:30:00,58.8,32.6,30.18,SW,223,5.0,10.0,37,0.00,CLR,,0.00,WeatherDisplay:10.37,2013-02-28 20:30:00,
2013-02-28 12:34:00,58.1,31.9,30.18,SW,220,6.0,7.0,37,0.00,CLR,,0.00,WeatherDisplay:10.37,2013-02-28 20:34:00,
2013-02-28 12:40:00,58.6,33.1,30.18,SW,214,3.0,8.0,38,0.00,CLR,,0.00,WeatherDisplay:10.37,2013-02-28 20:40:00,
2013-02-28 12:45:00,59.0,32.7,30.18,SSW,203,3.0,8.0,37,0.00,CLR,,0.00,WeatherDisplay:10.37,2013-02-28 20:45:00,
2013-02-28 12:50:00,59.5,33.2,30.18,SW,219,3.0,6.0,37,0.00,CLR,,0.00,WeatherDisplay:10.37,2013-02-28 20:50:00,
2013-02-28 13:00:00,59.7,33.4,30.15,WSW,257,3.0,6.0,37,0.00,CLR,,0.00,WeatherDisplay:10.37,2013-02-28 21:00:00,
2013-02-28 13:05:00,59.6,32.6,30.15,WSW,239,6.0,8.0,36,0.00,CLR,,0.00,WeatherDisplay:10.37,2013-02-28 21:05:00,
2013-02-28 13:10:00,59.5,32.5,30.15,SW,223,5.0,9.0,36,0.00,CLR,,0.00,WeatherDisplay:10.37,2013-02-28 21:10:00,
2013-02-28 13:20:00,59.0,32.1,30.15,SW,233,5.0,8.0,36,0.00,CLR,,0.00,WeatherDisplay:10.37,2013-02-28 21:20:00,
2013-02-28 13:30:00,59.9,32.9,30.15,SW,234,3.0,5.0,36,0.00,CLR,,0.00,WeatherDisplay:10.37,2013-02-28 21:30:00,
2013-02-28 13:40:00,60.2,33.1,30.15,WSW,252,3.0,9.0,36,0.00,CLR,,0.00,WeatherDisplay:10.37,2013-02-28 21:40:00,
2013-02-28 13:45:00,59.2,32.3,30.15,WSW,257,5.0,10.0,36,0.00,CLR,,0.00,WeatherDisplay:10.37,2013-02-28 21:45:00,
2013-02-28 13:50:00,58.0,31.2,30.15,West,266,6.0,10.0,36,0.00,CLR,,0.00,WeatherDisplay:10.37,2013-02-28 21:50:00,
2013-02-28 13:54:00,58.1,31.9,30.15,WSW,250,6.0,13.0,37,0.00,CLR,,0.00,WeatherDisplay:10.37,2013-02-28 21:54:00,
2013-02-28 13:59:00,57.6,31.5,30.15,WSW,240,5.0,8.0,37,0.00,CLR,,0.00,WeatherDisplay:10.37,2013-02-28 21:59:00,
2013-02-28 14:05:00,57.5,32.1,30.15,WSW,254,6.0,12.0,38,0.00,CLR,,0.00,WeatherDisplay:10.37,2013-02-28 22:05:00,
2013-02-28 14:10:00,57.6,32.1,30.15,SSW,213,5.0,6.0,38,0.00,CLR,,0.00,WeatherDisplay:10.37,2013-02-28 22:10:00,
2013-02-28 14:14:00,57.6,32.2,30.15,SSW,200,5.0,9.0,38,0.00,CLR,,0.00,WeatherDisplay:10.37,2013-02-28 22:14:00,
2013-02-28 14:20:00,57.7,32.3,30.15,WSW,245,5.0,7.0,38,0.00,CLR,,0.00,WeatherDisplay:10.37,2013-02-28 22:20:00,
2013-02-28 14:24:00,58.3,32.8,30.15,WNW,292,5.0,6.0,38,0.00,CLR,,0.00,WeatherDisplay:10.37,2013-02-28 22:24:00,
2013-02-28 14:29:00,58.8,32.6,30.15,WSW,241,3.0,8.0,37,0.00,CLR,,0.00,WeatherDisplay:10.37,2013-02-28 22:29:00,
2013-02-28 14:35:00,59.2,32.9,30.15,WSW,249,3.0,8.0,37,0.00,CLR,,0.00,WeatherDisplay:10.37,2013-02-28 22:35:00,
2013-02-28 14:40:00,58.6,32.4,30.15,WSW,250,5.0,10.0,37,0.00,CLR,,0.00,WeatherDisplay:10.37,2013-02-28 22:40:00,
2013-02-28 14:45:00,58.6,32.4,30.15,WSW,237,5.0,8.0,37,0.00,CLR,,0.00,WeatherDisplay:10.37,2013-02-28 22:45:00,
2013-02-28 14:54:00,57.7,31.6,30.15,WSW,242,3.0,8.0,37,0.00,CLR,,0.00,WeatherDisplay:10.37,2013-02-28 22:54:00,
2013-02-28 14:59:00,57.4,32.0,30.12,WSW,254,5.0,9.0,38,0.00,CLR,,0.00,WeatherDisplay:10.37,2013-02-28 22:59:00,
2013-02-28 15:04:00,57.4,32.0,30.12,West,261,5.0,12.0,38,0.00,CLR,,0.00,WeatherDisplay:10.37,2013-02-28 23:04:00,
2013-02-28 15:10:00,57.0,31.6,30.12,West,265,5.0,8.0,38,0.00,CLR,,0.00,WeatherDisplay:10.37,2013-02-28 23:10:00,
2013-02-28 15:20:00,57.2,31.8,30.15,WSW,251,6.0,9.0,38,0.00,CLR,,0.00,WeatherDisplay:10.37,2013-02-28 23:20:00,
2013-02-28 15:24:00,57.2,31.8,30.15,SW,236,5.0,7.0,38,0.00,CLR,,0.00,WeatherDisplay:10.37,2013-02-28 23:24:00,
2013-02-28 15:30:00,56.8,32.1,30.15,SW,235,6.0,10.0,39,0.00,CLR,,0.00,WeatherDisplay:10.37,2013-02-28 23:30:00,
2013-02-28 15:34:00,56.8,32.1,30.15,West,264,5.0,8.0,39,0.00,CLR,,0.00,WeatherDisplay:10.37,2013-02-28 23:34:00,
2013-02-28 15:39:00,56.7,32.6,30.15,West,263,3.0,8.0,40,0.00,CLR,,0.00,WeatherDisplay:10.37,2013-02-28 23:39:00,
2013-02-28 15:44:00,56.9,32.8,30.15,West,263,3.0,8.0,40,0.00,CLR,,0.00,WeatherDisplay:10.37,2013-02-28 23:44:00,
2013-02-28 15:49:00,56.8,32.7,30.15,West,281,6.0,9.0,40,0.00,CLR,,0.00,WeatherDisplay:10.37,2013-02-28 23:49:00,
2013-02-28 15:54:00,56.6,32.5,30.15,WSW,256,5.0,8.0,40,0.00,CLR,,0.00,WeatherDisplay:10.37,2013-02-28 23:54:00,
2013-02-28 15:59:00,56.4,32.3,30.12,WSW,252,6.0,8.0,40,0.00,CLR,,0.00,WeatherDisplay:10.37,2013-02-28 23:59:00,
2013-02-28 16:04:00,56.1,32.7,30.12,West,259,3.0,6.0,41,0.00,CLR,,0.00,WeatherDisplay:10.37,2013-03-01 00:04:00,
2013-02-28 16:10:00,56.1,32.7,30.12,West,271,5.0,6.0,41,0.00,CLR,,0.00,WeatherDisplay:10.37,2013-03-01 00:10:00,
2013-02-28 16:14:00,56.1,32.7,30.12,WNW,291,2.0,7.0,41,0.00,CLR,,0.00,WeatherDisplay:10.37,2013-03-01 00:14:00,
2013-02-28 16:20:00,55.9,32.6,30.12,WNW,290,5.0,9.0,41,0.00,CLR,,0.00,WeatherDisplay:10.37,2013-03-01 00:20:00,
2013-02-28 16:25:00,55.6,32.8,30.12,West,267,5.0,9.0,42,0.00,CLR,,0.00,WeatherDisplay:10.37,2013-03-01 00:25:00,
2013-02-28 16:30:00,55.2,33.1,30.12,West,277,6.0,8.0,43,0.00,CLR,,0.00,WeatherDisplay:10.37,2013-03-01 00:30:00,
2013-02-28 16:40:00,54.3,33.4,30.12,West,280,6.0,9.0,45,0.00,CLR,,0.00,WeatherDisplay:10.37,2013-03-01 00:40:00,
2013-02-28 16:50:00,53.4,33.1,30.12,West,273,6.0,10.0,46,0.00,CLR,,0.00,WeatherDisplay:10.37,2013-03-01 00:50:00,
2013-02-28 16:54:00,53.1,34.4,30.12,West,278,7.0,14.0,49,0.00,CLR,,0.00,WeatherDisplay:10.37,2013-03-01 00:54:00,
2013-02-28 17:00:00,52.7,34.1,30.12,West,275,6.0,12.0,49,0.00,CLR,,0.00,WeatherDisplay:10.37,2013-03-01 01:00:00,
2013-02-28 17:10:00,52.2,34.1,30.12,West,278,6.0,9.0,50,0.00,CLR,,0.00,WeatherDisplay:10.37,2013-03-01 01:10:00,
2013-02-28 17:14:00,51.6,34.1,30.12,West,274,6.0,9.0,51,0.00,CLR,,0.00,WeatherDisplay:10.37,2013-03-01 01:14:00,
2013-02-28 17:20:00,51.6,34.1,30.12,West,264,5.0,10.0,51,0.00,CLR,,0.00,WeatherDisplay:10.37,2013-03-01 01:20:00,
2013-02-28 17:24:00,51.4,34.9,30.12,East,88,3.0,6.0,53,0.00,CLR,,0.00,WeatherDisplay:10.37,2013-03-01 01:24:00,
2013-02-28 17:30:00,51.4,34.9,30.12,East,85,0.0,4.0,53,0.00,CLR,,0.00,WeatherDisplay:10.37,2013-03-01 01:30:00,
2013-02-28 17:34:00,51.3,34.7,30.12,East,92,2.0,5.0,53,0.00,CLR,,0.00,WeatherDisplay:10.37,2013-03-01 01:34:00,
2013-02-28 17:40:00,50.9,34.4,30.12,ESE,108,2.0,5.0,53,0.00,CLR,,0.00,WeatherDisplay:10.37,2013-03-01 01:40:00,
2013-02-28 17:44:00,50.7,34.7,30.12,West,281,6.0,10.0,54,0.00,CLR,,0.00,WeatherDisplay:10.37,2013-03-01 01:44:00,
2013-02-28 17:50:00,50.7,36.0,30.12,West,260,6.0,10.0,57,0.00,CLR,,0.00,WeatherDisplay:10.37,2013-03-01 01:50:00,
2013-02-28 17:59:00,50.1,35.4,30.12,West,276,5.0,8.0,57,0.00,CLR,,0.00,WeatherDisplay:10.37,2013-03-01 01:59:00,
2013-02-28 18:04:00,50.0,34.9,30.12,NNW,332,3.0,8.0,56,0.00,CLR,,0.00,WeatherDisplay:10.37,2013-03-01 02:04:00,
2013-02-28 18:10:00,50.0,36.2,30.12,North,352,2.0,8.0,59,0.00,CLR,,0.00,WeatherDisplay:10.37,2013-03-01 02:10:00,
2013-02-28 18:15:00,49.8,35.6,30.12,SSE,153,1.0,6.0,58,0.00,CLR,,0.00,WeatherDisplay:10.37,2013-03-01 02:15:00,
2013-02-28 18:20:00,49.8,36.5,30.12,SSW,201,1.0,6.0,60,0.00,CLR,,0.00,WeatherDisplay:10.37,2013-03-01 02:20:00,
2013-02-28 18:24:00,49.8,36.1,30.12,NNE,33,3.0,6.0,59,0.00,CLR,,0.00,WeatherDisplay:10.37,2013-03-01 02:24:00,
2013-02-28 18:30:00,49.8,36.5,30.12,NE,42,0.0,5.0,60,0.00,CLR,,0.00,WeatherDisplay:10.37,2013-03-01 02:30:00,
2013-02-28 18:34:00,49.8,36.9,30.12,NNE,27,0.0,6.0,61,0.00,CLR,,0.00,WeatherDisplay:10.37,2013-03-01 02:34:00,
2013-02-28 18:40:00,49.6,36.7,30.12,North,2,0.0,6.0,61,0.00,CLR,,0.00,WeatherDisplay:10.37,2013-03-01 02:40:00,
2013-02-28 18:45:00,49.5,37.0,30.12,NE,38,0.0,6.0,62,0.00,CLR,,0.00,WeatherDisplay:10.37,2013-03-01 02:45:00,
2013-02-28 18:55:00,49.5,37.4,30.12,East,101,0.0,6.0,63,0.00,CLR,,0.00,WeatherDisplay:10.37,2013-03-01 02:55:00,
2013-02-28 18:59:00,49.5,37.8,30.12,East,98,2.0,6.0,64,0.00,CLR,,0.00,WeatherDisplay:10.37,2013-03-01 02:59:00,
2013-02-28 19:05:00,49.3,38.0,30.12,East,96,3.0,6.0,65,0.00,CLR,,0.00,WeatherDisplay:10.37,2013-03-01 03:05:00,
2013-02-28 19:10:00,49.1,37.8,30.12,East,80,0.0,3.0,65,0.00,CLR,,0.00,WeatherDisplay:10.37,2013-03-01 03:10:00,
2013-02-28 19:14:00,48.9,37.3,30.15,NE,47,0.0,0.0,64,0.00,CLR,,0.00,WeatherDisplay:10.37,2013-03-01 03:14:00,
2013-02-28 19:20:00,48.8,36.7,30.15,NE,53,0.0,3.0,63,0.00,CLR,,0.00,WeatherDisplay:10.37,2013-03-01 03:20:00,
2013-02-28 19:24:00,48.9,37.3,30.15,ENE,77,2.0,6.0,64,0.00,CLR,,0.00,WeatherDisplay:10.37,2013-03-01 03:24:00,
2013-02-28 19:30:00,49.1,38.6,30.15,West,277,6.0,8.0,67,0.00,CLR,,0.00,WeatherDisplay:10.37,2013-03-01 03:30:00,
2013-02-28 19:34:00,48.9,38.8,30.15,West,271,3.0,8.0,68,0.00,CLR,,0.00,WeatherDisplay:10.37,2013-03-01 03:34:00,
2013-02-28 19:39:00,49.0,38.5,30.15,NW,315,3.0,6.0,67,0.00,CLR,,0.00,WeatherDisplay:10.37,2013-03-01 03:39:00,
2013-02-28 19:44:00,49.3,38.4,30.15,ENE,64,0.0,6.0,66,0.00,CLR,,0.00,WeatherDisplay:10.37,2013-03-01 03:44:00,
2013-02-28 19:50:00,49.1,38.2,30.15,ENE,59,0.0,3.0,66,0.00,CLR,,0.00,WeatherDisplay:10.37,2013-03-01 03:50:00,
2013-02-28 19:54:00,48.7,37.9,30.15,NE,37,0.0,3.0,66,0.00,CLR,,0.00,WeatherDisplay:10.37,2013-03-01 03:54:00,
2013-02-28 20:00:00,48.7,37.9,30.15,South,169,2.0,6.0,66,0.00,CLR,,0.00,WeatherDisplay:10.37,2013-03-01 04:00:00,
2013-02-28 20:10:00,48.9,38.4,30.15,ESE,102,2.0,5.0,67,0.00,CLR,,0.00,WeatherDisplay:10.37,2013-03-01 04:10:00,
2013-02-28 20:20:00,48.7,39.0,30.15,ENE,75,1.0,5.0,69,0.00,CLR,,0.00,WeatherDisplay:10.37,2013-03-01 04:20:00,
2013-02-28 20:24:00,48.6,38.8,30.15,SE,129,2.0,4.0,69,0.00,CLR,,0.00,WeatherDisplay:10.37,2013-03-01 04:24:00,
2013-02-28 20:30:00,48.6,38.8,30.18,SW,216,1.0,4.0,69,0.00,CLR,,0.00,WeatherDisplay:10.37,2013-03-01 04:30:00,
2013-02-28 20:34:00,48.5,38.8,30.18,WSW,241,1.0,6.0,69,0.00,CLR,,0.00,WeatherDisplay:10.37,2013-03-01 04:34:00,
2013-02-28 20:40:00,48.4,39.0,30.18,SW,234,2.0,5.0,70,0.00,CLR,,0.00,WeatherDisplay:10.37,2013-03-01 04:40:00,
2013-02-28 20:50:00,48.4,39.4,30.15,WNW,303,1.0,6.0,71,0.00,CLR,,0.00,WeatherDisplay:10.37,2013-03-01 04:50:00,
2013-02-28 20:54:00,48.2,39.6,30.15,WNW,295,2.0,6.0,72,0.00,CLR,,0.00,WeatherDisplay:10.37,2013-03-01 04:54:00,
2013-02-28 20:59:00,48.2,39.6,30.15,West,270,3.0,7.0,72,0.00,CLR,,0.00,WeatherDisplay:10.37,2013-03-01 04:59:00,
2013-02-28 21:05:00,48.2,39.6,30.15,West,261,1.0,6.0,72,0.00,CLR,,0.00,WeatherDisplay:10.37,2013-03-01 05:05:00,
2013-02-28 21:09:00,48.2,39.9,30.15,WSW,256,1.0,6.0,73,0.00,CLR,,0.00,WeatherDisplay:10.37,2013-03-01 05:09:00,
2013-02-28 21:14:00,48.2,39.9,30.15,WSW,249,3.0,5.0,73,0.00,CLR,,0.00,WeatherDisplay:10.37,2013-03-01 05:14:00,
2013-02-28 21:20:00,48.0,40.1,30.15,West,264,2.0,7.0,74,0.00,CLR,,0.00,WeatherDisplay:10.37,2013-03-01 05:20:00,
2013-02-28 21:25:00,48.0,40.5,30.15,West,260,3.0,7.0,75,0.00,CLR,,0.00,WeatherDisplay:10.37,2013-03-01 05:25:00,
2013-02-28 21:30:00,48.0,40.4,30.15,WSW,252,5.0,6.0,75,0.00,CLR,,0.00,WeatherDisplay:10.37,2013-03-01 05:30:00,
2013-02-28 21:39:00,47.8,40.6,30.15,WSW,245,2.0,7.0,76,0.00,CLR,,0.00,WeatherDisplay:10.37,2013-03-01 05:39:00,
2013-02-28 21:44:00,47.7,40.5,30.15,WSW,254,5.0,6.0,76,0.00,CLR,,0.00,WeatherDisplay:10.37,2013-03-01 05:44:00,
2013-02-28 21:49:00,47.7,40.5,30.15,WSW,249,1.0,6.0,76,0.00,CLR,,0.00,WeatherDisplay:10.37,2013-03-01 05:49:00,
2013-02-28 21:55:00,47.5,40.3,30.15,WSW,253,5.0,6.0,76,0.00,CLR,,0.00,WeatherDisplay:10.37,2013-03-01 05:55:00,
2013-02-28 22:04:00,47.5,39.9,30.18,WSW,245,3.0,6.0,75,0.00,CLR,,0.00,WeatherDisplay:10.37,2013-03-01 06:04:00,
2013-02-28 22:09:00,47.5,39.9,30.18,WSW,245,3.0,6.0,75,0.00,CLR,,0.00,WeatherDisplay:10.37,2013-03-01 06:09:00,
2013-02-28 22:14:00,47.3,39.8,30.18,WSW,250,0.0,5.0,75,0.00,CLR,,0.00,WeatherDisplay:10.37,2013-03-01 06:14:00,
2013-02-28 22:20:00,47.3,39.8,30.18,WSW,248,0.0,4.0,75,0.00,CLR,,0.00,WeatherDisplay:10.37,2013-03-01 06:20:00,
2013-02-28 22:29:00,47.5,39.9,30.18,SW,230,3.0,7.0,75,0.00,CLR,,0.00,WeatherDisplay:10.37,2013-03-01 06:29:00,
2013-02-28 22:34:00,47.7,40.1,30.18,SW,235,5.0,6.0,75,0.00,CLR,,0.00,WeatherDisplay:10.37,2013-03-01 06:34:00,
2013-02-28 22:39:00,47.5,39.9,30.18,SW,222,3.0,6.0,75,0.00,CLR,,0.00,WeatherDisplay:10.37,2013-03-01 06:39:00,
2013-02-28 22:44:00,47.5,39.9,30.18,WSW,239,2.0,8.0,75,0.00,CLR,,0.00,WeatherDisplay:10.37,2013-03-01 06:44:00,
2013-02-28 22:50:00,47.5,39.9,30.18,WSW,253,0.0,5.0,75,0.00,CLR,,0.00,WeatherDisplay:10.37,2013-03-01 06:50:00,
2013-02-28 22:59:00,47.4,39.8,30.18,WSW,253,0.0,4.0,75,0.00,CLR,,0.00,WeatherDisplay:10.37,2013-03-01 06:59:00,
2013-02-28 23:04:00,47.5,39.9,30.18,WNW,289,0.0,0.0,75,0.00,CLR,,0.00,WeatherDisplay:10.37,2013-03-01 07:04:00,
2013-02-28 23:10:00,47.3,39.8,30.18,NW,315,0.0,0.0,75,0.00,CLR,,0.00,WeatherDisplay:10.37,2013-03-01 07:10:00,
2013-02-28 23:14:00,47.3,39.8,30.18,WNW,295,0.0,0.0,75,0.00,CLR,,0.00,WeatherDisplay:10.37,2013-03-01 07:14:00,
2013-02-28 23:20:00,46.8,38.9,30.18,West,259,0.0,0.0,74,0.00,CLR,,0.00,WeatherDisplay:10.37,2013-03-01 07:20:00,
2013-02-28 23:30:00,46.8,38.9,30.18,WSW,249,1.0,5.0,74,0.00,CLR,,0.00,WeatherDisplay:10.37,2013-03-01 07:30:00,
2013-02-28 23:35:00,46.9,39.0,30.18,WSW,249,0.0,0.0,74,0.00,CLR,,0.00,WeatherDisplay:10.37,2013-03-01 07:35:00,
2013-02-28 23:40:00,46.6,38.7,30.18,WSW,248,0.0,0.0,74,0.00,CLR,,0.00,WeatherDisplay:10.37,2013-03-01 07:40:00,
2013-02-28 23:44:00,46.7,38.8,30.15,WSW,248,0.0,0.0,74,0.00,CLR,,0.00,WeatherDisplay:10.37,2013-03-01 07:44:00,
2013-02-28 23:49:00,46.4,38.6,30.15,WSW,248,0.0,0.0,74,0.00,CLR,,0.00,WeatherDisplay:10.37,2013-03-01 07:49:00,
2013-02-28 23:54:00,46.3,38.1,30.15,WSW,248,0.0,0.0,73,0.00,CLR,,0.00,WeatherDisplay:10.37,2013-03-01 07:54:00,